Theta_e
341 339 341 342 342 338 335 330 329 329 329 333 336 339 336 335 334 334 338 349 347 347 341 337 336 333 330 331 331 331 329 328 327 327 327 326 325 325 325 325 327 328 329
339 337 341 341 339 335 334 330 326 329 330 335 339 337 336 335 334 333 335 341 347 346 343 338 334 330 331 331 329 327 325 325 324 323 323 323 324 325 326 327 327 327 326
339 338 340 340 339 336 332 329 329 332 337 339 335 335 334 333 335 334 334 335 340 345 343 337 331 331 331 329 327 325 323 322 323 323 322 323 323 325 324 323 324 324 325
339 338 339 341 341 332 332 331 336 341 339 338 335 335 333 332 332 332 333 334 333 334 340 337 332 332 331 328 325 323 321 322 322 322 322 322 323 324 323 323 323 323 323
341 340 340 340 335 332 333 339 341 340 337 335 335 334 332 332 332 331 331 330 329 329 328 338 335 332 330 329 325 324 322 321 322 322 323 322 323 322 322 323 324 323 323
342 341 340 338 332 333 338 337 337 337 336 335 335 333 331 331 329 327 326 327 325 327 324 325 326 327 329 329 324 323 320 321 322 322 322 321 321 320 321 321 322 322 321
341 341 339 334 332 333 336 339 335 333 334 331 327 326 330 330 327 326 325 323 322 321 322 322 322 321 322 328 324 321 320 321 323 322 320 319 319 320 320 319 319 320 319
341 342 338 333 334 335 337 337 336 333 331 330 325 322 320 324 324 326 324 322 318 321 321 320 319 319 314 312 314 320 319 321 323 321 319 318 318 318 318 318 317 316 317
342 343 338 337 336 338 339 336 336 334 328 327 327 323 315 316 315 322 321 319 316 314 314 316 316 314 311 309 314 315 318 320 319 320 319 318 317 318 318 317 316 316 316
343 343 339 340 339 338 338 338 337 335 328 324 324 323 319 316 312 314 315 311 307 306 311 310 311 309 309 309 316 317 318 318 318 318 317 317 318 318 317 316 315 315 315
342 343 340 342 341 341 340 338 336 334 331 325 324 320 318 310 312 311 307 306 302 304 307 307 308 309 310 310 309 313 318 316 316 316 316 317 317 317 317 315 315 314 314
334 337 341 342 342 342 341 336 330 326 321 318 315 315 313 310 306 305 304 302 300 300 306 307 308 309 308 308 314 318 318 316 317 316 314 314 314 314 315 315 316 315 314
332 332 336 341 340 339 331 326 323 320 316 313 310 306 305 304 304 303 301 299 297 300 305 306 306 307 309 306 307 316 315 314 315 316 312 312 313 313 313 314 315 315 313
336 338 337 341 336 331 326 322 319 315 314 310 306 305 304 303 304 301 302 300 298 300 300 302 303 303 305 306 312 311 305 310 310 311 310 310 310 310 310 311 312 313 313
338 338 340 335 331 327 324 319 314 311 310 307 307 307 306 305 305 305 306 305 302 299 296 299 300 302 302 302 305 301 301 307 308 307 307 308 309 308 308 308 309 310 310
336 337 335 331 327 324 321 315 311 309 307 306 308 306 306 306 305 306 305 306 304 301 296 299 301 300 298 300 303 298 299 304 304 304 306 307 306 305 306 306 307 308 308
336 334 332 327 323 320 317 313 310 308 307 306 305 304 303 304 304 304 305 303 301 299 296 298 299 298 296 295 297 297 299 297 298 302 305 305 304 303 304 305 306 307 307
336 332 329 323 318 314 313 311 309 307 305 303 302 303 302 303 302 302 302 298 298 298 296 291 294 294 294 295 295 295 297 299 296 301 303 303 302 302 303 303 304 305 306
332 328 323 317 313 311 308 308 305 304 302 301 301 299 300 300 299 298 297 297 296 297 294 292 291 293 293 293 294 294 295 294 297 302 301 301 301 301 302 302 302 303 305
325 320 317 312 310 308 306 305 302 300 300 299 299 299 299 298 297 295 295 294 294 293 293 291 290 291 291 293 293 292 292 294 293 297 298 298 299 300 300 301 302 303 303
315 312 310 308 308 307 304 301 299 298 298 297 298 300 301 303 304 301 296 293 293 291 290 289 290 289 290 289 290 291 290 293 293 290 294 294 294 294 296 298 300 302 302
310 308 307 305 305 304 301 301 300 298 295 294 293 294 295 296 298 304 306 302 296 291 289 289 289 288 289 289 289 290 290 290 289 294 293 292 294 294 296 296 300 300 300
306 305 303 303 301 301 300 300 301 298 295 292 291 292 293 295 294 293 297 298 298 300 299 291 288 289 288 290 291 289 291 291 291 293 294 291 295 293 295 298 299 299 300
302 302 302 301 300 299 298 297 296 292 291 291 291 289 288 289 292 291 290 290 290 294 295 295 291 290 291 293 293 293 293 293 293 294 295 289 294 293 296 297 299 299 300
301 300 300 299 297 295 295 294 292 290 290 289 289 288 288 288 293 293 290 289 291 291 298 298 296 296 295 295 296 294 291 290 289 291 294 291 293 293 294 295 297 301 300
299 299 298 297 296 292 293 292 291 291 288 287 286 288 295 290 292 292 287 288 288 288 290 289 290 290 293 294 297 295 293 289 289 289 293 292 292 292 289 295 297 299 301
Wind_Speed
6 5 5 5 5 4 5 5 5 5 5 4 5 5 5 6 6 3 3 15 13 11 10 8 6 5 4 6 6 7 8 10 11 13 14 15 16 16 17 17 18 17 16
7 7 7 7 5 4 5 5 5 5 4 4 5 6 6 6 6 6 4 6 12 11 9 9 7 6 5 6 5 6 6 8 10 11 14 14 14 14 15 16 17 17 18
9 9 7 7 8 6 7 4 4 4 4 3 6 5 5 6 6 6 5 4 6 11 10 10 8 7 7 6 5 3 3 5 8 12 14 15 15 16 16 18 18 19 18
11 7 8 8 7 5 5 4 4 4 4 4 3 2 3 4 5 6 5 5 5 4 9 12 10 9 9 6 3 0 2 4 9 12 15 17 16 16 17 17 17 17 17
12 11 7 8 6 4 5 5 3 3 3 2 3 3 3 3 4 5 7 6 6 5 4 10 11 11 10 8 5 2 2 4 9 12 15 17 14 16 17 18 18 18 18
12 11 7 8 6 5 4 3 3 2 2 4 4 3 1 2 3 4 5 4 5 6 5 5 5 5 10 9 5 2 2 7 10 14 16 11 13 15 17 18 18 19 20
12 11 7 6 6 6 6 6 4 5 2 2 4 2 3 1 3 2 3 4 5 4 4 5 4 3 4 9 6 2 3 7 11 16 17 11 14 16 17 18 19 20 21
10 10 9 7 7 5 6 6 6 4 2 1 3 3 2 4 3 2 1 1 2 2 4 5 6 5 3 2 2 2 4 8 14 15 14 15 16 15 15 17 19 19 18
12 14 11 9 7 6 7 6 6 7 4 1 2 5 2 4 1 2 4 4 5 4 4 4 4 4 3 3 4 1 4 11 14 14 16 16 15 14 15 17 18 19 18
10 15 14 12 9 6 7 7 5 5 6 5 2 2 5 4 3 1 3 3 4 6 3 3 4 4 4 3 5 4 8 11 14 15 15 15 17 17 15 17 17 17 17
5 2 9 12 10 7 6 7 6 6 4 5 4 3 2 4 3 3 3 2 4 4 4 4 4 4 2 4 3 5 8 11 13 14 15 17 17 18 18 17 17 18 17
8 8 5 10 10 8 8 7 6 7 6 5 4 3 4 4 3 3 2 1 2 3 2 3 4 1 2 4 6 7 5 11 13 15 14 15 16 16 18 18 18 16 16
8 11 11 13 9 9 9 9 10 9 8 8 6 5 4 3 3 3 3 2 2 2 0 2 1 2 4 5 5 10 13 13 14 12 16 16 15 15 15 17 19 18 15
12 15 18 16 12 14 12 11 9 8 9 8 8 6 6 4 4 3 4 4 1 0 1 2 2 4 5 5 10 16 6 16 17 15 17 17 15 14 16 18 18 17 18
12 16 17 12 14 15 14 13 10 10 10 8 7 7 7 4 5 4 4 2 3 2 1 4 3 8 5 4 10 6 7 16 16 18 18 18 13 17 19 19 17 17 18
15 13 13 12 15 15 14 14 10 9 12 5 6 10 7 5 6 5 5 4 4 3 2 0 4 1 4 5 9 6 6 14 16 19 19 18 20 20 19 17 17 16 18
15 14 14 15 16 16 13 12 11 11 13 11 9 9 8 7 6 6 5 4 4 3 2 3 2 3 3 5 7 5 6 6 8 17 20 18 21 20 19 19 19 17 18
15 16 15 14 16 17 14 15 14 10 13 13 10 10 8 6 7 6 5 5 4 3 3 1 2 3 3 4 5 7 7 6 6 14 18 20 21 21 21 19 18 16 14
18 16 16 15 15 16 17 14 14 13 13 12 9 9 7 8 8 5 5 4 3 3 3 2 2 2 3 3 4 4 9 7 7 16 15 20 21 20 21 19 18 16 12
16 19 17 17 16 16 16 17 16 14 13 11 11 10 8 8 7 6 3 4 3 4 2 2 2 3 4 3 3 8 10 9 11 8 11 16 17 20 20 20 18 17 15
12 15 19 19 17 16 12 18 16 15 12 12 10 9 7 10 11 2 3 3 3 2 3 2 3 3 3 4 8 6 6 9 11 3 11 10 10 9 9 14 15 18 19
20 17 18 18 18 12 24 24 19 14 12 12 11 8 8 11 7 11 9 6 4 3 2 2 3 3 4 3 4 6 6 10 7 3 10 13 7 10 10 8 19 21 21
20 21 19 18 19 16 21 23 20 11 11 10 9 9 8 5 7 6 9 10 9 10 4 2 2 3 5 3 6 7 9 8 7 9 7 9 8 12 9 10 19 21 21
19 19 18 17 20 15 22 19 20 13 12 11 8 8 9 7 6 6 6 7 6 8 8 5 5 5 3 5 4 6 8 9 9 6 5 4 10 11 12 8 16 18 19
17 19 17 18 17 15 18 17 16 12 13 10 7 7 8 7 10 10 9 8 8 6 8 10 8 7 8 9 8 5 7 7 7 6 3 4 4 12 8 8 8 17 17
20 16 19 16 19 12 14 14 15 10 13 7 6 7 11 8 9 10 7 6 7 3 5 6 6 7 7 7 10 6 6 7 6 5 2 6 7 5 8 4 11 9 10
Wind_Direction
190 184 198 203 212 205 216 226 225 231 240 235 256 195 172 149 147 155 159 181 184 191 189 173 152 134 101 92 67 47 24 9 356 355 348 338 330 329 327 322 318 321 329
193 196 195 209 208 202 223 223 218 226 243 226 195 187 162 155 164 159 157 180 185 190 182 168 161 134 129 112 90 54 34 12 3 360 348 333 328 333 332 330 334 327 321
196 196 198 207 215 204 219 211 223 231 234 236 191 168 143 148 167 161 163 168 178 189 176 173 165 145 151 135 103 72 26 10 6 350 343 340 333 335 334 329 324 326 322
200 198 203 209 213 190 203 199 218 211 193 191 164 183 149 146 148 158 156 177 165 187 184 180 170 161 166 152 133 188 31 30 354 354 346 336 339 337 337 323 316 316 311
200 203 206 212 196 183 198 202 191 179 169 145 136 146 149 150 155 145 154 170 174 190 183 189 170 175 171 161 184 20 74 349 351 346 344 343 344 336 328 321 320 321 317
204 203 206 203 180 172 201 168 162 80 135 144 108 126 126 126 169 164 157 167 179 187 186 173 170 174 179 179 206 149 348 351 343 336 338 345 332 330 324 324 326 327 324
201 201 205 194 175 181 191 176 134 133 79 148 111 47 12 23 149 175 163 167 178 176 170 169 151 170 190 192 185 149 1 344 331 333 335 335 328 330 330 325 329 324 322
193 191 193 192 184 162 163 173 144 129 110 151 128 85 4 336 11 10 25 115 76 62 127 147 153 167 146 172 164 84 3 328 328 340 338 334 328 331 325 327 323 320 321
207 197 190 183 181 170 173 178 159 142 142 73 117 141 106 224 56 357 24 57 62 39 74 103 114 134 107 54 60 347 321 327 341 338 337 332 326 321 325 326 323 324 319
228 207 191 180 172 168 170 173 161 152 129 146 99 67 68 155 153 84 15 18 31 32 101 75 99 76 84 141 206 266 337 342 342 338 335 327 323 319 318 321 324 325 325
188 305 242 181 165 169 170 154 143 138 118 138 136 145 92 48 62 128 194 315 27 18 56 80 84 75 158 231 268 282 324 344 338 336 332 326 322 320 322 316 319 329 325
202 217 251 223 167 160 159 143 122 123 118 109 121 131 151 156 189 123 112 156 107 358 44 86 113 164 318 320 299 318 345 346 334 337 340 336 332 326 321 315 315 321 322
203 210 222 246 169 136 128 123 115 119 124 119 119 109 97 113 125 122 99 89 151 231 69 342 45 19 337 320 305 16 10 357 342 349 341 346 331 333 331 324 316 304 304
194 205 200 212 148 131 125 121 116 107 115 110 116 99 104 95 91 113 132 138 142 209 58 292 283 29 12 359 20 6 343 344 339 342 339 346 331 335 332 329 324 312 308
182 186 192 164 137 129 129 127 122 120 117 113 117 109 103 98 89 84 86 121 132 148 27 300 5 42 356 347 355 346 340 342 338 344 340 341 347 337 329 325 314 320 321
170 172 151 150 137 126 129 120 115 112 105 93 97 88 84 72 65 60 63 58 54 107 162 206 25 349 341 343 339 340 325 335 336 346 342 338 345 339 333 326 326 319 327
165 161 155 156 136 124 122 116 113 117 105 102 85 93 78 77 83 79 73 58 51 58 116 336 48 306 303 319 324 324 325 312 335 333 341 340 342 338 333 332 328 315 324
162 153 150 142 129 123 123 126 119 110 108 99 102 100 96 96 79 75 70 72 56 37 110 81 300 300 296 302 296 312 322 334 323 332 342 342 338 336 338 333 333 323 319
152 145 139 134 123 118 113 105 105 100 97 94 94 86 87 86 77 71 56 68 58 55 68 146 273 289 277 287 312 318 336 333 328 339 342 334 332 334 337 335 332 328 325
142 137 137 121 111 114 109 111 104 102 96 96 89 88 89 84 88 84 102 93 83 68 36 358 311 278 262 297 332 337 345 346 331 334 339 334 331 329 333 336 330 326 323
113 114 116 112 119 116 120 113 107 104 106 98 88 87 86 85 83 128 167 137 105 72 28 344 299 291 309 342 3 337 331 329 324 326 335 335 329 327 326 330 320 322 318
119 111 103 104 108 113 107 110 105 109 115 106 102 92 73 61 47 50 94 135 127 97 20 338 304 314 318 348 320 336 330 345 347 340 336 316 322 322 324 318 315 315 314
106 119 103 106 101 100 104 99 116 113 105 103 101 97 82 59 55 57 52 54 42 43 79 155 358 319 355 322 321 330 339 329 315 315 325 307 333 318 314 312 307 307 306
97 98 103 100 97 96 90 103 103 102 98 87 98 95 93 68 33 53 64 56 56 57 59 54 50 9 329 295 282 325 320 314 311 320 345 294 323 309 317 304 298 300 301
100 95 95 97 91 98 113 111 109 101 97 98 94 89 94 83 47 43 59 63 64 38 57 44 25 1 334 336 343 336 348 338 332 329 334 292 311 313 313 304 305 314 306
103 101 100 100 110 117 110 109 112 116 104 105 77 72 75 78 62 49 66 77 74 13 26 1 352 337 327 326 346 355 339 334 332 319 309 317 319 337 314 293 322 319 323